Content
SEND FEEDBACK

Daily
Averages
Monthly
Summary
Turkmenistan

ASHGABAT, TURKMENISTAN


Home > Asia > Turkmenistan
Elevation: 775 feet     Latitude: 37 58N     Longitude: 058 20E

WEATHER
 
SELECT A DAY
Number of Records: 177,237;   Date Range: 3/15/97 - 7/26/14
 
SHARE

PRINT THIS DATA

[ ← Previous Day ]
WEATHER ALMANAC - MARCH 14, 2013
[ Next Day → ]
[ °C ]   °F
Weather ElementAverageHighLow
Temperature69.3 °F84.2 °F (2:00 pm)57.2 °F (4:00 am)
Dewpoint41.9 °F51 °F (8:00 pm)35.6 °F (3:00 am)
Humidity36.8 %52 % (9:00 pm)10 % (2:00 pm)
Barometer29.88 in30.06 in (11:00 pm)29.80 in (1:00 am)
Wind Speed8.2 mph29.1 mph (10:00 am)
Wind Gust40.3 mph (10:00 am)
Weather ElementAverage
Visibility6.1 mi
Wind DirectionWSW (231.9 °)

Weather ElementTotal
Precipitation---
Cooling Degree Days5.7 (Base 65)
Growing Degree Days20.7 (Base 50)
Averaged from 32 records on March 14, 2013
WEATHER CONDITIONS BREAKOUT
WIND DIRECTION BREAKOUT
WEATHER BY HOUR - MARCH 14, 2013
[ °C ]   °F
Local TimeTemperatureDewpointHumidityBarometerVisibilityWind DirectionWind SpeedGust SpeedPrecipitationEventsConditions
1:00 AM60.8 °F39.2 °F45 %29.80 in6.2 miSouth (190°)6.7 mphMostly Cloudy
2:00 AM60.0 °F40.0 °F35 %29.81 in6.0 miSSW (210°)8.9 mphOvercast
2:00 AM60.8 °F39.2 °F45 %29.80 in6.2 miSSW (210°)4.5 mphMostly Cloudy
3:00 AM64.4 °F35.6 °F34 %29.80 in6.2 miSW (230°)4.5 mphMostly Cloudy
4:00 AM57.2 °F39.2 °F51 %29.80 in6.2 miSE (130°)4.5 mphMostly Cloudy
5:00 AM60.0 °F37.0 °F31 %29.80 in6.0 miSSW (200°)2.2 mphClear
5:00 AM59.0 °F39.2 °F48 %29.80 in6.2 miSouth (190°)4.5 mphMostly Cloudy
6:00 AM59.0 °F39.2 °F48 %29.80 in6.2 miSSE (150°)4.5 mphMostly Cloudy
7:00 AM59.0 °F39.2 °F48 %29.80 in6.2 miSouth (170°)6.7 mphMostly Cloudy
8:00 AM61.0 °F39.0 °F32 %29.83 in6.0 miSouth (190°)6.7 mphOvercast
8:00 AM60.8 °F39.2 °F45 %29.80 in6.2 miSouth (180°)6.7 mphOvercast
9:00 AM68.0 °F42.8 °F40 %29.83 in5.0 miSW (220°)6.7 mphOvercast
9:30 AM75.2 °F37.4 °F25 %29.86 in6.2 miWest (280°)13.4 mphOvercast
10:00 AM71.6 °F41.0 °F33 %29.92 in6.2 miWNW (290°)29.1 mph40.3 mphRainLight Rain Showers
11:00 AM73.4 °F42.8 °F33 %29.92 in6.2 miWest (260°)8.9 mphOvercast
12:00 PM77.0 °F42.8 °F29 %29.92 in6.2 miWSW (240°)4.5 mphMostly Cloudy
1:00 PM82.4 °F35.6 °F19 %29.89 in6.2 miSouth (170°)4.5 mphMostly Cloudy
2:00 PM83.0 °F36.0 °F10 %29.84 in6.0 miEast (90°)6.7 mphPartly Cloudy
2:00 PM84.2 °F35.6 °F18 %29.86 in6.2 miESE (120°)4.5 mphMostly Cloudy
3:00 PM84.2 °F35.6 °F18 %29.86 in6.2 miWNW (290°)4.5 mphMostly Cloudy
4:00 PM82.4 °F41.0 °F23 %29.86 in6.2 miNW (310°)13.4 mphMostly Cloudy
5:00 PM80.0 °F47.0 °F21 %29.86 in6.0 miWNW (300°)13.4 mphOvercast
5:00 PM78.8 °F44.6 °F30 %29.89 in6.2 miWNW (300°)15.7 mphOvercast
6:00 PM75.2 °F42.8 °F31 %29.92 in6.2 miWNW (300°)15.7 mphOvercast
7:00 PM69.8 °F46.4 °F43 %29.95 in6.2 miWNW (290°)8.9 mphRainLight Rain Showers
7:30 PM69.8 °F48.2 °F46 %29.98 in6.2 miWest (280°)11.2 mphRain-ThunderstormLight Thunderstorms and Rain
8:00 PM68.0 °F51.0 °F43 %29.96 in6.0 miWest (270°)4.5 mphRain-ThunderstormThunderstorms and Rain
8:00 PM68.0 °F48.2 °F49 %29.98 in6.2 miWNW (290°)6.7 mphRain-ThunderstormLight Thunderstorms and Rain
9:00 PM66.2 °F48.2 °F52 %30.01 in6.2 miWest (280°)8.9 mphRainLight Rain Showers
10:00 PM66.2 °F48.2 °F52 %30.04 in6.2 miWest (260°)8.9 mphMostly Cloudy
11:00 PM65.0 °F51.0 °F50 %30.05 in6.0 miWest (270°)4.5 mphPartly Cloudy
11:00 PM66.2 °F48.2 °F52 %30.06 in6.2 miWest (260°)6.7 mphOvercast
Hourly data recorded from UTAA, located miles away from Ashgabat, Turkmenistan







STORIES FROM OUR PARTNERS